GFSNGP_sfc_thetae_000.txt.gz
Theta_e
310 311 311 311 311 311 309 311 308 311 313 318 321 322 323 324 327 329 334 338 345 343 345 347 347 345 344 341 345 342 343 345 347 349 349 349 348 348 347 347 346 347 344 343
308 311 311 309 311 312 312 311 311 312 314 320 324 325 323 322 323 327 330 331 340 345 344 348 347 345 342 341 344 348 341 343 347 348 347 346 348 348 347 347 348 345 343 342
306 310 310 306 310 311 312 314 313 311 319 323 321 320 321 324 325 328 330 332 334 343 343 351 347 345 341 344 345 345 346 346 346 347 346 347 347 347 347 348 346 345 343 342
307 312 301 311 317 315 313 315 316 316 320 323 321 321 323 326 328 327 330 332 335 338 346 350 347 344 346 344 344 346 345 345 345 346 345 347 347 346 347 347 345 342 341 341
307 305 309 312 315 315 312 314 319 318 320 323 322 321 325 330 328 328 334 340 341 337 342 349 346 347 347 342 343 344 343 344 345 345 345 346 345 345 347 346 343 342 341 340
311 304 301 313 317 321 319 308 321 320 321 320 321 313 323 333 330 330 332 339 343 345 347 349 348 348 344 341 343 341 342 344 346 347 347 346 346 344 342 347 341 336 336 339
307 305 307 317 319 320 306 307 321 323 322 323 322 325 332 333 332 333 337 339 344 348 348 350 350 347 341 341 342 344 345 346 347 348 350 350 350 344 343 338 336 338 338 337
310 306 304 321 318 312 325 327 324 325 326 325 325 326 327 328 336 335 337 339 343 348 348 351 352 349 342 343 348 355 351 349 351 352 343 341 349 347 341 342 338 335 335 332
314 310 320 324 324 326 326 328 325 325 324 325 323 323 325 328 329 337 338 340 342 346 351 351 351 355 352 353 354 356 354 353 353 351 347 348 345 340 340 338 334 336 330 326
313 314 315 321 321 323 323 323 322 323 323 324 323 324 328 330 332 340 340 341 343 347 346 347 355 354 355 354 354 350 351 352 351 347 347 341 341 338 332 335 331 329 323 328
316 314 320 320 320 321 322 323 323 324 323 323 325 327 332 333 341 341 343 339 340 340 335 332 333 330 336 343 343 347 348 347 347 342 340 337 320 318 326 311 312 321 318 320
309 317 319 318 319 320 319 318 321 323 323 324 326 329 334 338 341 342 340 341 335 335 332 327 334 337 340 340 346 345 342 338 337 336 326 331 324 317 301 300 297 296 297 305
315 317 317 318 319 320 317 317 318 318 322 323 325 327 335 335 340 332 339 338 334 331 337 333 334 340 339 340 339 340 338 338 333 326 331 330 330 330 322 308 301 299 299 299
314 315 312 312 311 315 316 317 318 318 320 321 323 328 329 332 335 335 334 336 337 336 335 333 336 336 338 338 339 337 334 317 329 330 329 328 327 325 324 323 319 318 301 302
310 311 311 313 314 314 315 315 314 314 316 317 323 327 328 334 332 333 336 334 333 333 335 335 335 334 335 334 334 332 329 327 329 329 326 322 323 321 320 318 317 315 315 305
311 312 313 312 313 315 315 315 314 315 315 316 319 324 329 330 329 335 334 334 332 330 334 334 334 335 333 333 333 328 327 318 321 328 322 323 320 319 317 316 314 313 311 308
311 311 313 313 313 313 314 315 316 316 316 317 319 322 327 329 327 334 328 327 334 337 335 335 334 336 334 332 329 325 322 323 317 324 321 319 317 315 315 315 313 311 308 304
314 313 313 313 312 312 312 313 314 317 318 318 319 321 323 329 330 330 332 328 327 331 332 333 333 332 331 329 328 324 320 322 321 322 320 319 318 318 315 313 312 309 308 304
314 313 313 313 313 312 312 312 313 318 322 321 320 327 328 330 332 331 327 327 326 326 327 329 323 325 328 324 322 323 320 320 318 313 312 309 311 314 313 313 312 310 309 306
313 313 313 313 314 313 314 317 317 319 322 322 323 328 326 326 327 323 320 319 322 327 329 324 323 325 326 320 318 318 314 313 312 312 312 312 311 312 311 306 307 308 308 306
313 314 314 314 315 315 316 319 319 319 323 325 325 324 324 324 324 324 322 317 321 320 323 319 323 321 320 318 316 315 313 313 313 312 311 310 310 309 309 309 307 306 305 304
315 315 315 314 316 315 318 323 320 323 324 324 324 323 322 320 321 321 322 318 319 312 318 317 318 312 316 312 313 313 311 311 310 310 309 309 307 307 306 307 306 305 304 303
317 318 318 318 317 318 321 321 322 323 322 322 320 319 319 318 319 316 314 318 318 313 315 310 308 308 308 311 311 311 311 309 308 307 306 306 306 305 305 305 305 304 303 302
316 317 315 318 317 318 319 320 322 322 322 324 321 321 320 317 317 315 314 308 308 310 313 309 306 305 298 307 307 308 308 306 305 305 305 300 305 305 305 305 303 303 302 298
316 316 317 315 316 316 320 321 321 321 321 321 321 321 321 318 316 315 313 313 306 309 311 303 303 302 303 306 307 306 304 304 303 303 304 304 303 303 303 303 303 301 301 300
313 312 312 313 313 316 316 321 316 316 318 319 321 318 316 316 312 317 315 311 313 309 310 307 305 303 305 306 307 306 305 304 302 302 300 302 303 302 302 302 302 301 300 300
312 306 312 312 313 314 313 313 314 314 314 316 314 318 317 316 315 312 308 313 312 311 311 309 307 305 306 306 306 306 305 305 301 302 302 301 301 301 301 301 301 301 301 300

GFSNGP_sfc_thetae_006.txt.gz
Theta_e
299 304 305 304 304 302 298 299 298 299 301 304 310 312 313 315 317 318 318 324 324 330 333 335 338 341 343 344 342 339 338 335 332 331 331 330 330 331 330 330 330 329 330 330
300 303 305 302 304 305 305 304 303 302 304 309 313 315 313 315 315 316 318 324 328 328 334 336 338 340 341 342 341 338 336 335 334 333 332 332 333 332 330 330 329 330 330 329
294 301 302 300 303 304 306 310 306 299 303 311 310 312 311 312 313 314 316 318 323 333 334 339 340 340 337 338 338 335 335 334 333 334 333 334 334 331 330 330 328 329 330 327
295 295 291 300 309 312 310 310 310 308 310 313 313 313 313 312 313 314 316 316 316 320 330 340 343 341 336 334 335 334 333 332 334 334 333 334 332 331 330 330 331 330 327 327
292 291 296 304 307 309 307 307 314 311 312 312 314 315 313 315 314 315 315 318 320 322 328 335 341 338 333 333 334 332 331 332 333 335 333 332 330 330 332 330 328 327 328 326
299 294 290 300 312 315 312 301 313 314 313 312 313 307 310 316 318 320 322 323 324 324 336 335 335 335 333 332 331 331 332 333 334 334 333 331 332 332 333 331 330 329 326 325
297 295 298 309 315 315 298 301 313 314 312 311 311 313 315 316 317 320 322 325 327 333 337 334 335 334 331 330 330 332 333 332 332 334 333 332 333 333 330 328 324 323 325 325
299 296 293 314 313 308 310 312 315 316 316 316 315 317 317 317 315 316 317 321 326 329 334 335 334 334 331 328 328 328 325 325 326 328 334 336 334 331 327 325 323 322 323 321
304 302 310 314 312 313 313 312 315 314 316 316 316 317 321 319 319 318 319 321 325 328 333 334 335 330 324 321 325 325 322 322 326 322 322 327 330 328 325 322 320 319 320 316
308 311 314 316 316 316 317 316 317 317 318 317 316 319 320 321 323 327 328 325 331 329 327 325 326 325 322 324 324 322 321 321 325 321 320 327 327 326 323 320 316 316 314 313
308 314 314 315 315 316 318 319 319 318 318 318 318 326 329 328 327 326 325 325 326 326 325 321 322 322 323 324 322 321 322 322 321 322 325 319 314 312 315 305 309 311 309 310
303 312 310 311 315 316 312 313 315 313 312 314 317 321 331 329 327 324 322 323 325 325 325 322 321 321 322 324 322 319 317 319 323 325 320 313 308 306 301 299 297 297 300 303
310 314 313 315 315 312 309 309 311 310 308 308 309 312 316 326 325 322 323 324 325 325 323 324 323 323 325 325 323 322 323 324 322 320 318 311 307 307 306 304 300 297 296 298
314 309 303 305 303 309 312 314 313 312 311 310 310 310 310 314 324 325 325 326 327 325 324 321 324 323 327 328 323 324 322 317 318 316 317 313 310 308 307 306 303 302 299 298
306 307 305 307 308 308 310 310 308 307 308 309 312 311 311 309 313 324 323 323 326 325 323 325 324 323 325 324 322 320 321 319 319 317 319 317 315 314 311 308 307 304 302 300
305 306 306 305 304 305 306 307 304 304 305 305 307 309 311 312 318 323 322 323 322 322 323 318 319 319 319 321 321 321 318 317 317 315 314 312 310 310 309 307 306 303 302 301
303 302 303 302 304 305 305 306 305 305 306 306 306 308 313 317 319 318 316 318 320 320 316 314 314 316 318 317 321 321 320 317 318 314 312 311 310 309 308 306 304 302 301 300
306 304 304 303 304 304 305 307 307 306 305 308 308 308 320 320 316 315 315 317 315 313 312 313 313 314 321 322 319 317 315 316 316 314 312 311 310 308 308 307 305 302 299 299
309 307 308 309 308 307 306 307 309 309 309 310 309 308 318 316 317 317 313 312 313 313 315 316 321 321 316 319 316 316 316 314 314 313 311 310 310 310 312 309 306 305 302 301
310 311 311 312 312 310 310 310 311 311 313 315 314 313 313 313 314 313 313 311 312 313 316 317 317 316 315 316 313 308 310 308 308 307 306 305 305 305 304 306 308 307 303 301
310 311 313 313 312 313 313 312 312 311 309 313 310 309 312 314 317 316 313 312 313 316 315 316 314 312 309 309 308 306 305 308 305 305 305 304 303 303 302 302 302 304 304 300
311 311 311 312 311 310 311 309 312 311 309 310 310 309 309 310 315 315 314 312 311 311 311 309 310 313 310 311 303 301 301 304 304 304 304 303 302 301 300 300 300 298 297 297
307 310 310 309 308 308 310 310 311 312 311 311 311 311 311 312 313 310 308 311 310 310 309 307 308 311 309 304 302 299 299 298 298 298 298 300 301 298 296 297 298 297 295 294
307 308 308 310 310 309 305 309 310 311 311 312 312 310 310 310 310 311 311 310 307 306 304 304 305 306 304 298 297 297 296 295 292 293 293 296 295 295 295 295 295 295 293 293
306 307 307 305 304 306 306 308 308 312 311 309 311 310 309 309 308 306 309 309 306 304 302 305 305 304 297 297 296 295 295 292 291 291 292 292 293 293 294 295 294 293 292 292
306 305 305 304 304 304 305 307 305 305 306 307 309 309 309 306 307 307 306 306 307 304 300 299 298 297 296 296 296 296 296 292 292 292 292 292 291 291 292 293 295 294 293 292
303 301 302 303 302 306 307 304 303 303 304 305 306 309 310 312 310 308 306 305 303 302 302 299 297 297 295 296 296 296 296 295 294 294 292 291 291 291 291 292 293 292 291 292

GFSNGP_sfc_thetae_009.txt.gz
Theta_e
298 300 299 300 300 300 298 299 298 298 299 304 307 309 311 313 313 315 317 318 322 325 326 329 331 336 340 344 345 342 339 336 333 333 332 332 332 331 330 330 330 329 327 327
295 299 300 299 301 302 302 299 299 298 300 306 310 310 310 312 313 314 315 318 321 324 325 325 330 334 339 342 343 342 340 337 335 332 330 330 331 330 330 330 330 330 327 328
294 297 299 295 300 301 303 305 303 298 302 307 308 310 311 311 314 315 316 322 322 322 326 329 331 335 338 341 343 340 340 337 333 333 331 331 332 331 330 330 330 329 327 327
295 294 291 298 306 307 307 309 309 308 304 309 310 314 312 311 312 313 315 318 323 326 326 331 333 336 337 341 340 338 336 334 334 333 333 332 331 331 330 330 329 328 327 328
291 291 298 304 308 306 303 304 311 310 310 311 312 312 310 313 313 314 314 314 315 320 326 329 334 337 336 336 337 336 334 333 334 334 332 331 329 330 332 329 329 328 327 325
292 291 292 303 311 314 311 300 312 312 311 311 311 307 307 314 314 315 315 319 319 321 323 329 330 336 333 331 333 333 334 332 333 333 331 329 330 331 330 330 329 328 327 327
295 296 299 308 312 314 299 300 312 311 309 310 307 309 310 313 315 317 318 320 322 321 328 331 332 331 329 329 330 331 331 331 331 331 331 330 330 329 330 328 325 324 325 324
298 295 294 311 311 304 307 309 311 311 312 312 313 315 316 318 317 317 317 317 320 322 327 333 331 329 326 325 328 329 327 325 323 326 326 325 325 324 326 327 324 322 322 321
302 299 307 311 308 312 312 310 311 312 313 314 317 315 318 319 320 322 324 326 327 324 325 328 329 328 324 324 325 326 325 322 322 323 324 325 323 320 320 324 322 320 319 318
306 307 310 312 313 314 314 313 314 315 314 315 318 324 320 322 325 326 326 327 328 327 326 323 324 325 323 324 323 323 322 321 322 322 321 322 322 322 323 323 320 319 318 316
306 312 313 312 313 315 316 316 315 314 316 316 315 314 318 323 325 326 326 324 325 322 321 320 321 322 323 324 325 324 323 324 322 320 320 319 312 313 317 310 311 314 313 312
303 312 310 310 314 316 311 311 311 310 309 310 311 310 316 323 326 323 323 322 322 319 318 320 322 322 323 324 324 322 320 321 321 320 320 315 310 304 300 299 297 297 300 305
310 314 312 312 312 313 310 310 310 309 309 308 308 309 309 310 316 321 322 321 321 321 320 320 320 320 320 320 322 320 317 318 319 318 316 310 310 306 305 302 297 294 295 297
311 306 306 309 307 310 310 310 309 307 306 307 309 309 308 308 309 316 322 323 322 321 320 320 320 319 322 321 318 317 317 314 318 318 316 311 310 310 309 305 302 301 296 297
306 307 308 308 306 306 306 306 304 304 304 305 306 307 307 310 312 316 320 325 324 321 320 322 320 320 323 324 321 318 319 318 315 316 315 312 311 310 309 304 303 301 301 299
303 304 304 303 303 304 305 305 303 303 304 304 305 307 308 315 317 318 319 322 321 319 319 321 320 320 321 319 317 314 315 316 315 315 315 313 314 312 308 308 304 302 302 302
302 301 302 302 302 303 303 304 304 305 306 305 306 307 312 316 317 316 315 319 321 320 319 318 318 316 315 315 315 315 313 314 316 313 311 310 309 310 309 307 306 304 302 300
304 303 304 303 303 304 304 305 307 307 307 307 309 307 310 313 315 314 314 315 315 314 314 315 314 313 315 317 316 315 314 313 312 311 310 310 311 308 307 306 305 304 302 300
308 307 309 310 309 307 307 307 307 308 309 311 312 310 310 312 314 313 313 313 312 310 311 312 317 317 314 318 315 313 312 312 312 310 310 309 308 308 307 306 305 304 303 301
309 310 312 311 312 310 309 310 310 310 311 313 313 311 310 314 313 312 310 309 309 311 314 315 314 313 312 315 313 311 311 311 311 310 309 308 307 307 307 304 304 304 303 300
308 310 310 310 310 310 310 309 310 309 309 308 309 309 309 310 311 311 309 308 313 313 313 315 314 310 308 309 306 305 306 306 306 305 304 304 303 303 302 302 304 303 302 301
307 308 308 309 307 306 308 308 309 309 308 308 308 307 307 307 309 309 310 309 311 311 312 312 311 311 309 308 301 300 301 305 307 305 302 302 301 301 301 300 300 300 301 298
304 306 306 306 307 307 307 307 308 309 309 309 309 309 308 309 309 308 307 310 311 310 310 308 310 312 309 300 299 298 297 295 298 299 300 300 301 300 299 298 298 298 296 296
304 304 305 307 305 304 304 306 307 307 307 308 308 307 306 306 307 310 310 309 307 306 307 307 307 308 304 298 297 296 295 294 292 292 293 296 297 296 294 295 295 295 294 293
304 304 303 302 301 302 302 305 305 305 308 306 308 312 308 306 307 306 308 310 306 305 304 305 306 305 298 296 295 295 294 292 291 290 291 293 293 293 293 293 294 294 293 293
304 303 302 301 300 300 301 302 303 303 302 303 305 306 308 305 304 305 305 305 305 303 302 300 301 300 296 296 295 295 294 293 291 290 290 291 291 291 291 292 293 293 292 293
301 299 299 299 299 301 302 302 301 302 301 302 303 305 307 308 307 306 305 304 303 303 301 300 301 298 296 295 295 295 295 294 291 291 291 290 290 290 290 291 292 293 292 291

GFSNGP_sfc_thetae_015.txt.gz
Theta_e
305 307 305 304 302 303 302 305 302 305 306 313 317 320 323 328 329 327 328 331 336 337 342 346 348 351 351 350 354 354 354 353 350 349 347 343 339 336 334 332 333 334 335 337
301 304 305 302 304 304 304 304 305 306 308 317 321 321 321 324 326 327 328 330 334 338 340 342 345 345 346 349 351 354 354 351 351 348 343 342 341 340 337 333 335 335 334 335
300 304 302 299 303 304 305 307 307 304 311 319 316 318 322 327 327 328 331 331 332 336 341 342 342 344 344 347 350 352 352 352 350 347 342 342 341 339 337 331 331 336 336 337
301 300 292 303 309 308 306 308 310 310 313 318 318 322 324 327 328 329 332 333 334 333 336 340 341 342 346 347 349 351 352 351 349 345 343 342 342 339 338 338 330 333 337 337
299 300 303 305 310 305 304 306 312 311 315 317 317 319 321 323 324 328 329 331 333 334 336 339 339 342 344 345 348 350 350 350 347 345 343 341 340 336 335 337 336 339 337 337
302 295 295 307 313 317 315 303 317 318 319 319 318 312 319 322 324 326 329 333 335 335 338 340 342 344 345 346 347 348 349 349 348 346 344 341 337 336 339 340 338 336 338 339
304 300 304 311 314 317 304 308 317 319 320 319 318 319 322 325 328 331 331 332 336 338 339 343 345 347 346 346 346 350 349 349 346 344 342 337 337 338 340 338 336 333 336 338
305 301 300 315 314 310 315 317 318 320 320 321 324 326 328 330 331 333 334 335 337 339 339 342 345 347 345 344 344 345 345 344 342 342 342 339 337 338 338 339 337 334 334 334
308 306 315 317 315 318 320 320 321 322 322 324 322 324 327 328 330 331 334 334 337 337 338 340 343 346 341 337 342 343 341 339 340 342 342 342 339 339 337 337 331 332 330 325
310 313 314 315 317 318 318 317 318 320 321 322 322 327 330 332 333 333 333 333 335 333 331 331 337 340 337 338 341 341 340 339 340 340 339 339 337 336 332 330 329 329 329 329
310 312 315 316 315 315 315 316 316 317 318 318 317 319 325 330 332 333 334 334 335 334 333 330 334 335 339 339 340 338 338 337 339 339 337 326 319 324 330 331 324 329 330 330
307 315 315 315 315 315 313 313 315 315 316 319 320 320 322 324 328 331 332 332 331 333 332 331 334 335 337 338 336 336 333 333 332 331 327 324 323 315 298 299 298 297 301 318
311 313 310 311 311 312 311 311 312 312 313 313 317 321 322 322 324 323 331 334 334 335 334 334 334 335 337 337 337 335 334 334 330 327 326 325 323 324 321 306 296 295 296 298
313 312 308 309 308 311 312 311 311 312 313 314 315 317 318 321 324 326 328 331 333 333 334 335 336 334 335 336 337 335 334 316 332 330 326 323 323 324 324 323 320 315 298 301
309 311 311 312 311 311 312 312 311 310 312 313 315 316 317 316 318 322 328 331 332 332 332 333 332 333 334 334 333 332 330 329 330 330 330 324 321 324 324 323 321 317 313 304
308 308 308 308 309 310 311 311 311 311 313 315 316 316 316 318 318 319 325 330 330 331 332 332 331 330 331 331 330 330 331 319 322 329 326 326 324 324 323 321 319 317 315 316
307 306 308 308 309 311 311 312 313 313 314 315 316 318 319 318 318 319 323 329 332 331 331 330 330 331 331 332 331 332 330 330 321 329 327 326 325 324 323 321 319 318 318 316
312 312 313 313 311 311 312 315 316 316 316 317 320 321 321 321 321 322 325 324 329 329 329 329 328 328 328 330 330 327 327 326 327 327 327 324 324 324 323 322 321 319 319 313
313 313 313 313 314 314 314 314 316 317 317 318 319 319 320 318 319 323 325 325 326 327 324 326 319 324 327 326 325 326 325 325 326 327 327 318 322 324 322 321 320 320 320 317
312 313 313 313 315 315 315 316 318 317 316 317 319 320 319 320 319 323 324 323 323 323 325 325 328 328 328 326 322 327 326 326 325 324 323 324 323 322 321 311 319 319 318 316
310 311 311 312 313 315 315 316 317 317 318 320 319 318 318 319 320 321 321 319 323 325 326 322 326 325 323 321 321 324 325 324 324 323 322 322 320 320 319 320 319 319 318 317
310 310 310 311 311 313 315 316 317 319 319 319 319 320 320 320 321 322 321 321 323 312 322 324 323 317 316 314 316 318 321 322 321 320 319 320 319 318 318 318 317 318 317 316
311 311 311 311 311 311 314 316 317 318 318 318 318 317 317 316 318 319 318 321 324 316 323 323 314 311 308 316 314 312 311 312 312 313 314 315 316 316 316 316 316 316 315 315
312 313 313 312 312 312 312 314 316 316 316 317 317 319 318 315 317 319 323 314 309 312 320 319 315 309 306 316 314 313 313 313 312 310 309 299 310 312 313 314 314 314 314 311
312 312 312 312 311 310 312 314 313 314 315 315 316 317 318 319 317 317 318 320 309 314 320 308 308 308 316 316 315 314 313 311 310 309 308 307 307 309 310 310 310 310 311 311
311 311 311 312 311 311 311 312 311 311 311 312 314 315 315 317 317 317 319 312 319 313 319 319 319 317 317 316 315 313 312 311 309 309 306 307 306 306 307 307 307 307 307 307
310 303 311 311 310 310 309 310 310 308 308 309 309 312 311 312 312 311 309 316 317 317 318 318 318 314 316 316 314 314 313 312 306 311 310 308 307 305 305 306 307 307 306 306

GFSNGP_sfc_thetae_021.txt.gz
Theta_e
310 311 311 309 307 307 306 309 306 310 311 316 320 322 324 325 326 326 327 330 338 338 339 352 354 358 359 360 361 359 362 363 366 371 371 371 368 368 368 361 359 356 354 352
308 310 310 308 310 309 308 308 308 310 310 319 322 324 324 324 325 325 326 327 335 341 343 351 355 359 361 361 362 363 366 365 369 372 370 370 368 367 365 361 355 354 352 348
304 309 309 305 309 310 311 312 310 306 311 317 318 321 324 329 326 326 327 331 329 341 346 354 354 360 360 364 364 365 367 367 370 372 370 369 367 365 362 357 353 350 348 346
305 308 299 310 316 314 312 313 315 314 315 316 317 320 325 328 329 329 329 331 332 339 344 350 352 354 361 359 365 367 367 368 370 372 370 367 362 361 358 354 353 349 347 344
303 304 308 311 315 314 313 313 316 315 317 318 318 318 321 325 328 330 333 335 334 339 344 351 354 360 364 362 361 363 363 367 368 368 368 365 359 357 354 352 350 347 345 344
307 302 300 310 319 322 321 308 318 320 320 318 318 311 318 327 325 327 332 334 336 339 344 348 356 355 360 361 362 362 364 364 368 369 366 360 358 357 355 351 348 346 344 344
306 305 308 319 319 322 308 311 327 327 326 326 322 320 324 326 329 330 334 336 344 347 345 358 359 359 360 359 357 360 359 360 363 363 364 361 355 356 351 345 345 344 344 343
307 304 301 322 321 314 323 328 328 329 329 327 329 327 324 334 335 336 337 339 343 344 348 353 360 361 360 359 364 365 364 363 363 363 358 356 355 353 346 346 342 342 340 340
309 309 324 324 324 326 327 327 329 331 330 330 330 330 333 335 337 339 341 343 345 348 353 352 359 362 359 367 368 365 362 360 359 358 355 355 351 344 339 343 340 338 339 345
316 320 320 322 323 325 327 326 331 332 333 332 333 336 337 338 339 340 342 344 346 347 349 351 361 362 362 363 362 362 357 352 350 347 348 348 343 342 340 340 340 343 342 341
318 320 320 321 322 323 324 326 328 332 334 334 335 333 335 336 337 338 340 341 343 344 346 348 352 353 356 357 358 353 349 345 344 342 344 338 328 334 343 329 326 341 341 341
315 321 321 318 320 322 322 323 325 325 327 328 329 331 332 334 339 338 337 339 340 344 347 349 351 351 354 355 354 350 347 345 344 341 341 341 336 328 301 302 299 300 303 318
316 324 319 317 317 316 317 317 319 321 323 324 325 326 327 326 329 326 339 342 342 343 345 348 348 347 351 352 351 350 346 345 341 338 340 339 337 335 332 315 299 297 298 300
324 323 319 320 317 315 314 314 316 317 318 317 320 322 321 322 325 327 328 335 342 344 344 344 344 344 348 347 349 347 344 327 340 339 337 336 334 333 331 329 326 324 303 306
316 319 318 319 318 317 316 314 313 314 317 319 320 319 321 321 321 323 328 330 335 341 341 343 342 342 345 344 343 342 340 338 339 337 336 331 333 331 330 329 329 327 317 309
311 312 313 313 314 315 315 312 312 312 316 316 317 320 321 320 321 324 326 332 332 333 339 341 342 342 344 344 342 339 336 327 330 334 332 331 330 328 328 328 326 324 322 322
308 307 308 306 308 310 311 313 314 316 316 319 321 322 322 320 322 325 328 332 337 340 340 340 338 341 341 339 337 334 332 330 327 331 331 330 329 328 327 327 327 323 323 320
309 309 313 313 311 311 313 315 314 317 320 321 323 322 323 324 324 327 330 331 332 332 336 338 339 338 338 338 335 332 332 329 329 328 328 328 327 327 327 325 324 324 318 313
314 314 314 316 316 315 315 316 317 319 321 322 323 323 325 326 327 330 332 331 331 331 332 335 326 332 337 333 331 332 329 326 327 328 328 323 327 327 326 325 324 322 319 319
314 317 316 317 318 317 318 319 320 319 320 321 322 322 323 324 326 327 328 329 331 330 334 333 334 335 336 329 326 329 328 328 325 326 326 326 326 325 326 316 324 322 322 322
312 313 314 315 316 318 319 321 320 318 320 322 322 322 322 325 325 327 324 322 328 329 330 327 330 329 329 328 326 328 327 326 323 324 324 324 322 323 323 322 322 323 322 322
313 314 313 314 316 318 319 318 319 319 321 321 321 321 322 322 324 325 328 323 325 315 324 324 324 318 322 317 325 323 322 323 322 322 322 323 323 320 321 321 320 320 321 320
315 314 314 315 315 314 316 316 316 316 316 317 319 319 319 319 320 320 320 325 325 318 321 319 313 315 314 320 320 321 320 320 319 319 319 320 320 320 319 320 320 319 319 319
315 316 316 316 317 315 315 316 316 317 317 318 318 318 318 318 317 319 322 316 316 316 321 318 315 311 307 319 320 320 319 318 317 317 316 304 315 315 316 318 318 318 319 316
317 318 318 315 315 312 314 316 315 314 317 318 318 318 318 317 315 316 320 319 312 315 319 312 312 312 317 318 318 318 318 317 317 316 316 314 313 312 312 313 314 315 317 317
315 312 313 316 314 313 313 313 311 312 313 313 314 315 316 316 316 315 317 314 317 315 316 320 321 320 320 318 318 318 318 318 316 316 314 314 314 313 312 312 313 313 313 313
312 306 311 311 311 311 312 312 311 311 312 313 312 314 315 315 315 314 311 316 316 316 316 317 317 315 316 318 317 317 317 317 312 317 316 316 315 315 314 313 312 312 312 312

GFSNGP_sfc_thetae_024.txt.gz
Theta_e
308 309 311 310 308 308 307 308 305 308 312 317 320 323 326 329 332 332 336 337 344 339 347 346 346 347 348 350 352 355 358 360 362 366 366 366 364 364 363 365 361 357 353 352
307 309 309 308 309 309 309 308 309 309 309 319 323 325 326 323 325 329 332 335 342 345 347 354 351 350 349 351 352 355 355 358 362 364 367 365 364 364 364 364 362 358 353 352
303 308 308 303 309 310 309 310 309 306 312 319 319 320 324 332 331 330 330 332 334 344 347 350 356 355 351 352 357 356 359 359 361 363 365 365 365 363 363 362 360 357 352 351
305 308 297 309 315 313 311 312 312 313 315 317 318 320 322 326 327 329 333 333 338 333 344 351 351 354 360 356 358 360 359 362 364 365 365 365 364 363 361 363 360 354 352 350
302 302 306 308 312 312 310 312 317 314 318 318 320 320 320 324 325 328 331 337 337 334 332 348 349 356 359 360 358 359 359 366 364 367 367 365 364 362 362 360 357 352 348 346
304 300 298 311 314 320 320 308 320 322 320 320 322 315 321 326 325 326 328 331 337 334 333 339 352 354 359 358 360 358 361 362 368 370 367 366 365 363 363 358 353 353 349 347
303 302 305 318 320 322 308 312 326 326 326 325 322 327 334 333 333 327 331 329 335 350 349 353 355 356 358 359 359 362 365 366 369 368 368 368 364 361 358 354 351 349 346 342
306 303 300 321 319 312 322 328 327 328 328 328 330 332 332 332 334 338 342 337 342 352 363 361 360 364 360 360 365 368 366 366 367 368 364 362 359 354 354 350 346 345 341 339
309 308 322 325 324 328 329 328 328 327 328 329 328 329 330 336 339 337 340 346 345 354 362 365 371 365 361 366 366 365 363 363 364 364 362 359 354 349 346 346 340 338 337 336
310 319 322 324 326 327 328 328 334 334 333 334 330 335 337 338 339 341 348 349 353 353 354 357 364 364 365 363 365 363 363 361 358 351 349 348 344 342 341 340 339 338 338 340
311 322 321 322 324 325 328 331 331 331 334 333 335 336 338 339 342 344 347 349 353 353 354 359 363 362 364 363 362 358 353 351 350 347 345 333 320 325 340 324 326 341 345 343
312 316 319 322 325 326 323 324 327 327 328 330 328 327 328 334 340 341 341 345 344 343 346 351 353 354 358 360 355 350 345 344 342 343 339 332 326 319 301 302 300 300 305 325
314 313 313 318 319 321 320 321 321 322 323 324 326 328 329 327 328 330 340 345 346 348 350 351 352 353 356 356 354 350 347 344 341 340 340 339 336 331 320 310 300 298 299 305
314 315 312 315 313 316 317 319 318 319 317 318 320 321 323 328 330 330 339 343 345 345 346 347 347 347 351 353 352 353 347 328 342 340 338 339 337 337 332 325 322 317 302 305
314 319 319 317 317 315 316 316 315 316 317 319 322 320 322 322 325 327 334 337 342 342 345 344 342 343 348 348 344 341 341 341 341 338 337 334 336 335 332 330 329 319 313 307
312 314 315 315 314 316 317 314 312 311 313 316 320 321 322 324 324 329 334 334 333 336 342 341 343 344 344 345 346 343 338 327 335 337 331 334 333 330 331 330 328 323 322 318
308 307 310 311 313 314 312 315 317 315 314 317 321 323 322 319 325 327 331 337 339 341 342 343 342 341 345 342 343 337 336 334 322 331 331 331 331 330 330 330 328 326 325 321
313 312 313 314 313 314 315 315 316 317 318 321 322 323 325 325 324 326 330 330 333 335 336 336 338 341 342 342 337 336 331 330 331 330 330 331 329 331 332 328 328 325 327 316
313 313 313 313 313 315 316 316 317 320 321 321 322 322 325 327 330 330 331 331 331 328 331 336 330 333 339 330 329 329 328 325 324 328 326 321 322 328 323 322 325 325 324 317
314 315 317 317 319 319 318 319 319 319 321 321 322 321 323 325 328 328 328 326 329 334 338 334 337 336 336 332 329 329 327 325 325 327 330 325 326 324 326 318 323 323 322 322
313 314 314 316 316 318 319 320 319 318 321 322 323 322 321 327 324 327 327 322 330 328 331 328 326 321 334 326 325 325 326 325 322 322 324 325 323 323 324 323 323 324 320 321
313 313 315 316 316 316 317 319 319 320 320 320 322 321 323 321 325 323 325 324 323 315 321 319 319 317 317 318 320 323 323 323 323 323 323 325 323 322 323 321 320 321 323 320
315 315 316 315 315 316 316 317 316 316 318 319 320 320 318 319 320 320 319 324 322 315 316 315 316 314 313 319 319 318 318 318 318 321 322 324 321 321 322 320 321 320 320 321
315 318 319 318 317 315 315 315 316 317 321 319 318 321 320 315 320 321 322 315 314 317 318 318 314 313 309 317 319 318 317 317 316 316 316 307 316 316 317 318 319 321 320 318
311 313 318 314 319 313 320 318 317 320 321 322 322 321 320 317 318 319 320 319 311 315 321 312 312 312 316 316 316 317 318 317 317 316 315 314 314 313 314 313 314 314 315 317
315 312 312 316 314 313 313 314 312 312 313 313 313 315 316 317 316 316 318 314 316 316 316 318 319 320 319 318 316 316 317 315 316 315 314 315 315 314 313 313 312 313 314 314
312 306 311 311 310 311 310 311 311 310 311 312 311 312 314 315 315 313 311 314 314 314 315 317 316 316 315 316 315 317 317 316 309 316 317 316 317 316 316 315 314 313 312 313

GFSNGP_sfc_thetae_027.txt.gz
Theta_e
303 304 305 305 305 305 301 301 295 298 299 304 308 315 317 319 320 321 325 325 325 332 333 335 336 340 344 347 348 356 358 358 357 359 361 360 360 359 355 355 354 351 347 346
301 304 304 302 305 306 305 304 303 302 301 306 310 319 320 320 321 320 321 329 328 329 334 335 335 338 341 344 347 350 354 355 357 357 359 359 359 358 358 354 356 351 346 345
296 302 302 297 302 304 306 307 305 300 304 308 308 313 317 321 319 319 319 328 329 329 335 336 337 338 339 342 345 347 349 354 355 356 357 358 358 357 356 355 356 354 348 345
295 299 293 302 308 309 307 309 308 306 307 309 310 312 314 315 316 316 321 324 326 334 334 338 341 340 341 342 344 345 347 350 354 355 356 358 358 356 356 357 356 354 349 347
294 295 299 305 307 307 304 304 311 307 308 310 312 311 308 317 316 315 318 317 323 328 335 339 342 345 342 342 345 345 347 348 352 355 356 358 357 357 356 356 353 352 350 348
296 293 292 301 310 313 316 302 319 319 318 318 316 307 312 323 325 324 322 319 322 326 326 338 337 349 345 343 345 345 346 351 353 355 356 358 358 357 356 355 354 350 346 345
297 294 298 308 314 314 303 305 321 322 321 320 315 319 323 325 323 324 326 322 320 324 324 327 339 350 348 346 344 350 352 354 357 358 359 360 358 358 356 352 349 348 345 342
298 294 293 318 316 309 316 320 322 322 321 321 320 321 321 323 324 323 327 335 329 324 331 338 341 349 348 349 351 351 357 358 361 361 361 360 358 354 350 347 347 343 341 338
302 304 316 319 319 322 325 322 322 320 327 321 322 324 333 331 332 332 334 343 350 350 352 355 352 350 349 354 358 358 358 358 359 358 358 355 350 347 345 341 341 338 337 336
307 313 314 316 321 323 329 328 329 331 332 330 328 331 331 332 337 340 342 342 345 348 349 351 355 357 357 357 357 357 356 353 349 348 346 345 345 344 340 338 337 336 335 334
307 313 317 321 320 322 327 329 326 325 325 324 325 325 329 331 334 339 341 344 348 350 350 351 354 355 356 356 356 352 347 344 343 339 330 321 311 319 333 318 329 337 336 335
306 310 311 309 314 323 324 325 324 322 322 324 323 322 324 325 332 336 339 341 340 342 345 346 349 348 348 349 348 344 340 341 336 332 327 323 319 313 302 301 300 302 310 324
312 314 312 312 313 315 315 313 316 317 319 319 320 323 323 322 325 330 336 338 340 340 341 342 343 347 345 343 343 341 338 338 335 330 328 326 324 319 313 309 301 298 299 304
316 316 310 312 310 314 314 316 316 317 318 318 317 318 320 321 323 327 332 335 338 338 338 339 341 342 344 344 343 340 338 325 337 334 331 329 326 322 318 318 315 312 300 301
317 317 314 315 314 314 315 313 313 315 317 316 318 318 319 318 323 329 333 335 336 337 335 337 337 339 339 340 341 338 337 337 337 336 336 332 332 326 320 320 315 310 304 301
316 312 313 313 313 315 315 314 313 312 313 317 316 316 315 320 323 329 332 333 332 332 334 334 334 334 336 339 334 330 327 327 330 330 330 332 331 328 325 322 315 311 310 308
308 308 310 310 310 311 313 315 315 316 316 316 319 320 318 321 321 321 322 330 331 330 331 332 331 334 335 334 331 329 327 324 325 328 324 325 322 322 325 322 317 315 315 310
311 312 313 312 311 312 313 316 317 317 317 318 316 320 321 320 321 322 321 319 320 324 328 329 328 331 330 328 328 326 326 324 325 324 324 324 323 323 325 324 320 318 317 310
311 310 311 314 316 314 313 313 316 317 319 320 318 319 321 322 323 325 321 324 319 314 316 322 325 329 329 327 326 323 325 324 323 323 323 321 320 319 320 322 322 321 317 311
314 316 317 317 318 317 316 317 317 317 319 319 319 319 319 321 322 323 323 322 322 324 328 326 324 327 328 327 326 323 323 324 322 322 322 322 321 319 320 316 319 319 315 312
314 315 315 315 316 317 317 317 316 315 317 318 317 318 318 320 320 319 319 317 319 322 321 319 316 321 317 318 321 324 323 321 321 319 319 319 319 320 318 316 317 317 315 315
312 313 314 314 314 314 316 316 317 316 316 316 315 317 318 318 319 318 317 314 312 312 312 311 312 315 312 319 317 321 320 321 320 319 319 320 319 317 315 315 316 318 317 318
314 315 313 312 313 312 313 314 313 315 314 315 314 317 316 316 316 313 311 315 315 311 310 311 314 312 312 311 314 314 314 313 315 319 317 316 315 314 315 315 315 315 316 316
313 310 310 312 316 314 311 312 312 315 314 315 315 316 316 315 315 317 313 310 313 313 313 311 311 311 311 312 310 311 310 309 309 308 309 310 313 309 308 314 315 315 315 313
313 311 310 311 309 308 312 312 310 312 313 311 312 311 315 317 313 316 314 312 309 310 315 310 311 312 311 313 312 312 312 311 311 310 309 307 306 305 305 305 305 306 308 311
309 310 309 307 305 306 306 308 307 308 310 309 309 311 311 312 312 312 311 311 311 311 314 314 315 315 313 311 312 312 312 311 312 313 312 312 309 309 308 306 304 304 305 306
307 304 305 304 304 304 304 304 303 304 307 307 306 307 309 312 310 308 308 308 308 308 309 309 311 309 310 308 310 313 312 312 307 313 312 312 313 312 314 313 311 309 307 305

GFSNGP_sfc_thetae_030.txt.gz
Theta_e
296 300 302 301 301 302 297 299 295 297 296 298 300 308 314 319 321 321 321 322 323 325 330 332 336 338 341 345 351 353 354 354 353 354 355 357 356 354 352 351 352 347 346 345
294 301 302 300 302 303 302 301 300 296 296 301 304 306 311 316 318 318 316 320 320 326 330 333 336 338 341 343 350 353 353 354 356 356 355 355 356 356 353 352 351 348 346 344
287 297 299 296 301 302 302 304 302 297 299 303 304 309 311 315 316 318 317 318 322 326 330 334 336 339 340 343 348 352 352 354 355 355 355 356 356 356 355 352 351 348 345 344
288 291 289 300 306 306 302 303 305 303 303 305 306 306 313 313 316 318 317 319 324 327 329 334 336 339 342 343 345 350 351 353 354 355 354 356 356 355 355 355 351 350 346 345
287 289 295 302 302 303 299 300 307 304 306 307 308 308 314 316 312 309 314 316 320 327 331 331 334 336 339 340 343 344 348 350 353 354 353 355 354 354 354 355 353 352 349 346
292 288 289 298 306 311 308 297 316 308 308 310 307 300 306 319 320 319 319 317 315 324 331 336 337 335 336 337 340 342 344 346 352 353 354 353 355 355 355 355 353 353 350 348
292 291 295 305 310 310 298 299 317 316 314 313 311 309 317 321 319 319 326 324 318 314 320 333 338 338 335 336 337 341 345 346 347 352 353 354 356 357 355 354 353 352 347 346
295 293 290 313 314 301 306 316 318 317 316 317 317 323 323 324 321 320 322 331 327 319 316 318 334 342 337 336 340 342 342 343 346 350 353 354 357 356 354 353 349 345 341 339
299 300 308 310 317 323 325 323 324 324 324 328 327 328 332 335 337 338 340 342 343 337 343 343 330 343 341 341 341 344 344 346 349 351 353 357 356 354 350 348 345 340 339 337
303 306 310 310 315 323 323 322 323 325 327 329 327 330 332 335 336 338 341 343 345 345 344 344 345 343 342 345 345 348 347 354 356 356 355 356 354 352 348 343 340 339 336 334
304 309 312 313 312 317 322 323 322 322 322 323 327 326 331 332 334 337 337 339 342 344 346 346 347 347 352 353 354 353 354 353 351 347 339 322 320 333 339 327 337 337 336 336
304 309 310 309 313 316 314 315 318 319 319 321 322 321 326 326 330 334 336 338 338 338 338 341 343 342 345 349 350 348 340 338 335 330 326 324 322 316 306 305 310 310 316 325
310 313 310 313 314 314 313 315 316 316 316 317 318 321 322 322 325 327 333 335 335 335 337 339 341 340 341 340 341 341 335 332 330 328 328 326 324 323 317 313 305 299 300 304
316 313 308 311 310 315 315 316 317 317 318 318 318 321 324 325 327 328 329 332 334 335 334 336 338 338 340 339 336 336 333 320 330 329 327 327 326 321 321 322 318 311 300 301
314 315 311 313 315 315 316 316 315 314 315 314 316 320 322 323 325 327 330 333 334 333 332 334 333 334 337 336 335 335 335 333 331 330 327 323 322 321 319 318 315 308 305 302
314 314 313 312 312 313 314 315 314 314 314 316 313 316 317 318 319 324 328 329 328 326 328 331 332 334 334 331 328 328 331 327 330 331 328 326 323 320 318 315 312 312 313 309
309 307 309 309 312 313 313 315 315 315 315 313 316 317 317 317 316 314 315 323 325 324 323 323 326 327 328 328 325 323 325 327 325 329 330 329 325 322 320 315 313 310 311 308
312 312 312 311 311 313 314 315 316 317 314 317 318 320 318 317 312 311 315 312 314 314 315 320 324 325 324 325 322 322 324 324 325 324 323 323 324 324 322 318 315 314 313 307
312 313 315 316 315 314 315 315 316 317 317 317 317 316 318 321 319 316 318 318 317 317 315 318 322 320 320 323 324 320 321 321 320 320 320 319 321 322 322 320 318 317 314 309
314 315 316 316 316 314 313 312 313 314 315 316 314 315 315 318 321 320 318 315 318 320 322 323 325 323 321 321 323 322 322 321 320 319 319 319 318 318 321 317 320 318 315 311
313 314 313 313 313 314 313 312 311 310 311 316 315 315 314 314 318 318 313 311 313 316 314 318 320 319 318 321 322 323 324 322 322 320 320 319 318 320 320 320 321 319 316 312
310 310 310 311 309 309 309 311 312 313 312 314 316 315 316 314 315 313 309 306 308 310 309 308 312 314 313 319 315 323 324 323 320 318 317 316 316 316 315 315 316 316 313 312
307 308 308 310 307 306 307 308 310 309 311 312 313 313 313 312 310 311 309 311 309 309 310 309 311 312 312 312 312 311 319 319 317 316 315 317 315 314 314 314 314 315 317 316
305 305 305 304 304 306 306 305 311 311 309 308 310 313 309 309 310 311 308 309 310 310 310 309 311 310 310 311 311 310 309 308 306 313 314 308 310 308 312 312 312 313 314 312
302 301 301 300 299 300 302 303 307 307 305 304 305 306 307 307 309 309 308 307 307 310 311 310 311 309 310 310 311 311 310 310 309 308 306 305 302 302 302 302 305 309 311 313
300 299 299 297 297 300 301 301 299 302 304 303 305 306 308 308 306 307 305 305 305 306 306 303 304 305 307 309 310 310 310 310 310 310 309 309 310 310 308 307 304 302 302 302
298 298 298 298 298 298 298 298 299 298 299 300 301 303 302 302 302 302 301 301 301 302 301 301 301 301 300 300 304 304 306 307 303 311 310 310 310 310 310 309 306 305 303 302

GFSNGP_sfc_thetae_033.txt.gz
Theta_e
292 295 296 297 297 299 295 297 294 297 295 298 299 302 306 311 316 317 318 321 323 325 325 326 329 334 337 342 346 346 346 346 347 349 349 350 350 349 348 349 349 346 343 342
290 296 297 296 298 300 300 300 297 296 294 299 303 301 302 306 311 315 317 320 320 324 327 328 329 333 337 340 346 348 346 347 349 349 350 351 351 351 349 348 349 346 344 343
284 292 293 292 297 299 300 302 301 296 297 300 300 301 302 304 309 314 317 321 318 319 323 328 330 334 335 338 343 348 348 348 349 349 349 350 352 352 350 348 348 346 345 344
284 288 284 296 302 304 301 301 301 299 300 302 304 305 307 307 308 313 316 315 316 319 320 327 331 334 337 339 342 346 348 349 350 350 349 350 351 352 352 351 349 348 344 344
284 284 291 297 301 300 298 298 303 303 303 303 305 306 306 312 310 314 316 316 318 322 323 325 330 334 336 337 340 345 346 348 350 352 351 351 350 351 353 353 351 350 347 344
287 284 284 294 306 311 306 296 305 304 304 304 304 300 305 316 313 311 309 314 317 323 326 325 328 334 336 336 339 343 347 348 351 352 352 352 352 352 353 354 353 351 349 347
288 287 290 301 310 314 294 298 309 309 305 303 302 306 307 318 317 316 319 318 313 318 326 329 328 333 335 337 338 342 346 350 350 352 352 353 353 354 354 353 353 351 350 350
289 290 287 310 311 306 308 317 316 313 313 311 314 315 317 318 316 317 320 326 319 313 314 322 330 330 331 334 339 342 343 344 348 350 352 352 352 353 354 353 352 351 351 346
295 296 305 309 313 315 317 318 321 316 321 325 326 326 329 330 333 336 337 338 339 335 333 336 320 333 329 332 336 337 338 341 342 346 350 352 351 352 353 353 351 349 346 341
301 306 309 313 315 315 316 318 321 325 326 331 329 330 331 333 334 336 338 340 341 341 339 340 344 339 335 336 333 332 335 337 340 342 346 350 352 353 353 351 350 344 341 338
301 307 310 314 314 314 318 318 320 321 321 324 330 328 331 332 334 335 337 338 339 342 342 342 343 342 344 345 339 334 336 335 339 343 343 332 317 336 352 335 344 341 338 338
297 308 308 310 314 315 315 315 316 318 319 321 322 322 327 327 329 332 333 334 336 336 339 341 340 341 342 342 341 344 341 335 331 328 326 324 324 320 308 313 313 313 315 327
306 312 311 313 315 317 314 316 318 319 320 321 324 326 326 325 326 326 331 331 333 335 337 338 335 336 335 338 337 333 330 329 329 328 330 330 328 328 326 320 310 305 302 305
312 312 309 312 312 316 316 316 316 317 319 321 322 324 327 327 328 329 329 330 331 331 331 333 336 335 335 328 330 330 330 320 331 332 334 329 327 326 327 326 328 319 304 304
312 314 313 314 315 316 315 316 315 314 314 315 319 318 320 324 325 327 327 328 328 327 327 328 329 330 334 334 330 329 331 330 331 332 330 327 328 327 327 328 324 314 308 303
311 313 313 312 313 314 314 314 312 312 314 314 316 317 316 318 320 321 323 323 322 321 323 321 321 323 326 329 331 333 331 324 326 325 322 323 322 322 321 317 316 319 320 311
309 308 310 312 313 313 313 314 314 312 313 316 317 316 314 314 315 314 315 315 315 316 319 321 319 322 322 322 324 327 328 328 324 326 324 323 322 321 318 318 317 318 318 311
313 312 311 311 311 312 313 314 314 314 314 318 320 320 316 310 311 315 316 316 315 315 315 318 320 320 321 321 321 322 323 324 326 325 324 321 320 319 317 315 315 313 308 303
315 314 315 314 313 312 314 314 315 315 317 317 318 317 317 316 317 317 317 319 317 315 315 317 321 319 319 324 321 322 320 320 320 319 321 318 321 319 315 313 312 311 310 307
314 315 315 314 315 313 311 311 314 315 315 316 317 316 317 316 315 316 316 314 314 314 315 318 319 317 316 318 322 319 320 319 319 318 318 318 319 319 318 312 316 313 312 309
312 312 312 311 310 311 311 310 312 314 316 313 313 311 312 311 311 312 310 309 311 308 308 311 310 310 314 318 320 322 320 321 319 320 319 318 318 319 319 320 321 318 315 312
307 308 307 307 307 308 310 311 312 313 314 313 314 315 312 310 309 306 305 304 306 308 306 308 310 313 311 316 315 321 323 323 321 320 319 319 318 319 319 320 321 319 318 314
300 301 301 302 304 306 308 308 308 309 311 312 311 310 310 309 309 309 306 308 308 308 310 309 310 311 311 309 310 311 315 317 320 320 317 315 315 316 315 314 313 314 313 312
299 299 299 300 301 301 301 304 304 305 306 307 306 307 307 303 304 305 304 306 307 308 308 308 309 309 310 311 310 310 310 308 306 308 314 305 309 309 311 312 312 313 313 311
298 299 298 298 298 299 299 300 301 302 303 304 303 303 303 303 301 300 302 302 302 302 302 305 307 308 308 308 309 309 309 309 309 310 309 307 304 303 300 300 301 303 304 307
295 295 297 296 294 297 299 300 299 299 301 300 300 301 300 301 301 301 301 300 299 300 298 299 299 299 300 301 304 307 308 309 309 309 309 310 308 307 305 303 302 301 301 300
297 296 296 296 296 296 297 296 296 295 297 297 297 298 298 298 299 298 298 297 297 297 297 296 296 297 296 298 300 300 302 306 302 308 308 307 307 306 305 303 302 301 300 299

GFSNGP_sfc_thetae_036.txt.gz
Theta_e
290 293 294 294 294 295 294 296 293 295 295 297 299 301 304 305 310 315 317 319 321 323 325 327 330 333 335 338 341 343 343 343 344 346 347 347 347 348 350 350 348 345 344 344
288 294 294 292 295 296 296 296 296 297 295 300 303 302 303 306 308 312 316 319 321 324 326 325 328 332 335 337 341 343 343 342 345 346 347 347 348 347 347 349 350 348 344 344
283 290 291 289 294 296 296 298 297 294 298 301 300 301 303 305 305 307 312 318 319 321 324 326 327 332 334 337 342 343 343 343 344 346 346 347 348 348 347 346 348 349 347 345
283 286 281 292 298 300 298 300 300 299 302 303 304 305 305 306 308 307 308 315 319 321 324 327 329 330 334 337 340 343 343 344 345 346 346 348 348 348 348 348 347 347 347 347
282 283 289 293 300 303 300 298 303 301 302 303 305 305 304 306 306 308 310 313 318 322 324 325 327 330 334 336 339 343 344 344 346 348 347 347 348 349 350 350 349 348 349 347
283 282 282 294 305 311 310 296 304 305 304 304 302 298 304 309 313 312 313 316 317 319 322 322 325 329 333 334 337 340 345 346 348 349 348 348 348 349 351 352 351 350 349 349
284 285 289 297 309 315 296 297 313 315 315 304 302 307 309 311 316 314 313 313 316 321 325 326 328 332 332 334 336 340 344 348 349 350 350 350 350 351 351 351 352 351 350 350
284 284 282 307 308 304 306 312 316 316 318 317 304 306 312 317 317 317 323 325 320 315 317 324 330 334 334 334 339 342 344 347 348 350 351 352 351 351 351 351 351 351 350 348
288 287 298 308 308 312 314 314 316 318 320 320 310 312 318 322 330 335 337 339 337 337 340 343 335 331 330 333 337 339 341 342 348 350 352 353 352 352 351 352 351 350 349 346
294 297 301 308 313 314 315 315 317 320 322 323 324 328 331 334 335 335 336 337 339 341 341 342 344 343 342 346 341 335 336 338 341 344 347 352 353 352 352 351 351 350 348 346
294 298 305 311 311 313 316 318 318 323 325 331 333 332 334 334 335 334 335 337 339 339 338 341 343 344 345 346 341 335 336 337 340 340 327 324 322 320 329 320 331 350 349 346
291 299 303 307 311 316 316 316 320 322 325 327 330 328 330 328 330 331 330 333 333 333 333 334 337 339 340 340 343 337 332 330 329 328 329 330 330 325 309 311 310 309 310 320
298 305 308 312 314 317 316 317 320 322 325 325 328 328 328 326 327 325 330 333 333 331 333 334 333 331 332 337 337 333 330 330 330 329 328 326 325 324 322 321 308 309 311 314
302 305 308 312 310 315 317 317 319 321 323 325 328 329 328 328 328 326 325 327 331 331 331 332 331 331 336 332 335 334 333 319 331 330 329 328 327 326 325 324 323 325 304 301
302 309 313 315 315 315 317 317 316 315 320 320 324 326 326 324 322 322 324 324 323 322 322 323 324 326 333 333 329 329 330 330 333 329 329 326 329 327 326 325 324 324 311 305
312 313 313 313 313 314 314 314 313 314 316 318 318 319 320 319 318 318 320 320 319 317 319 319 319 322 327 333 334 331 328 322 325 327 327 328 327 326 325 325 320 318 317 314
309 308 311 311 312 312 312 313 313 316 316 315 314 315 316 314 314 314 314 316 316 316 319 319 319 322 323 329 331 331 330 328 323 326 324 324 324 324 323 323 323 323 320 315
313 312 312 312 312 313 313 315 316 318 317 319 317 316 316 316 316 316 317 317 318 319 318 320 320 322 324 324 328 328 329 328 327 325 325 323 322 321 321 322 322 318 312 309
314 312 313 313 313 313 313 315 315 316 317 318 317 316 317 316 316 316 317 315 316 316 317 320 320 320 321 325 324 326 326 326 326 325 324 318 322 321 320 319 318 317 317 314
310 311 311 311 312 312 313 315 315 314 316 317 316 315 313 313 313 310 308 307 308 310 312 313 315 318 320 324 322 322 323 324 323 322 323 323 324 321 319 312 317 315 316 316
307 308 308 309 309 312 314 315 315 313 313 311 309 308 308 308 308 309 307 307 308 310 311 312 312 313 315 321 323 324 324 323 324 324 322 322 322 320 319 318 317 316 314 313
302 304 306 306 305 306 308 311 313 312 312 312 312 311 309 308 309 308 307 306 309 308 310 310 312 313 314 315 319 322 323 323 321 321 320 320 321 322 321 320 319 319 317 315
300 301 301 301 302 303 303 304 306 306 306 306 306 306 304 304 304 306 305 307 308 308 310 310 310 311 311 312 313 312 310 309 319 319 318 320 318 318 319 320 321 322 321 318
298 299 300 301 301 301 299 301 303 302 302 301 300 301 302 304 301 302 302 302 303 303 303 305 307 308 309 311 311 311 310 310 312 311 309 302 306 307 311 315 317 318 319 316
297 297 297 297 297 298 300 301 300 300 300 299 299 300 300 301 298 298 299 299 300 299 299 301 302 303 305 308 310 309 310 309 309 310 308 307 306 305 304 304 304 305 305 305
295 295 296 295 295 296 297 298 296 297 298 297 297 298 298 299 298 298 298 298 298 298 298 299 300 301 302 304 306 307 308 307 308 308 307 306 305 304 303 302 301 301 302 302
295 295 295 296 296 296 296 295 295 295 296 296 295 297 297 297 297 296 297 297 297 298 298 299 300 300 301 302 302 302 302 304 299 304 306 305 305 303 303 302 301 300 300 300

GFSNGP_sfc_thetae_042.txt.gz
Theta_e
306 302 302 306 305 306 305 307 303 307 308 312 314 315 317 319 320 321 324 328 332 335 336 339 343 353 356 353 356 354 359 358 360 365 367 368 368 369 370 370 370 371 371 371
300 302 301 300 304 305 307 308 308 308 309 316 317 318 318 319 319 320 321 324 328 334 338 341 345 348 351 354 355 357 359 358 362 365 367 368 368 369 370 369 370 371 369 369
296 302 301 297 302 304 306 308 308 305 311 315 315 315 317 319 321 321 323 324 326 332 337 341 342 347 349 355 355 357 359 361 363 365 366 367 367 368 369 369 369 369 369 369
296 299 290 303 311 309 306 308 310 310 312 314 316 318 320 322 322 322 323 325 327 328 331 339 342 340 349 350 357 358 359 361 363 364 365 367 368 367 368 368 368 368 367 368
292 293 299 302 303 304 305 306 311 311 313 314 316 316 317 320 322 324 326 327 329 329 329 332 334 339 345 350 351 354 359 360 362 364 364 366 365 366 365 365 363 363 364 365
294 290 290 301 307 309 309 301 313 314 317 318 318 309 314 322 323 325 326 327 327 329 330 331 334 337 341 348 353 356 358 360 362 364 366 365 365 365 364 363 361 359 362 364
290 290 296 304 307 314 299 309 320 319 321 322 322 324 330 332 331 332 332 331 332 332 332 338 339 343 346 348 350 357 356 357 361 364 368 365 367 367 366 364 364 363 359 360
291 289 287 303 303 300 310 314 316 318 319 320 323 326 327 330 333 335 335 333 329 333 334 338 346 347 355 355 358 360 359 356 360 364 360 358 367 366 366 366 364 362 356 353
294 293 302 304 304 309 311 310 312 314 319 321 322 324 327 329 333 337 338 334 336 338 338 346 349 351 351 362 363 358 358 360 361 364 362 365 363 363 359 361 356 356 355 351
296 299 301 304 307 309 309 309 311 314 315 318 319 323 327 330 335 340 337 342 346 344 346 349 353 354 355 358 360 359 357 359 361 361 360 361 359 360 357 356 355 354 353 352
296 300 302 303 306 307 308 308 308 311 314 318 319 321 328 329 339 341 340 347 349 350 350 354 354 356 356 357 358 356 357 358 359 359 359 360 360 349 357 362 342 353 354 354
293 301 301 303 306 308 309 312 313 314 316 319 322 323 327 334 343 344 345 347 351 352 349 350 348 348 359 361 358 357 356 354 353 355 357 357 354 341 306 305 301 300 309 329
300 303 304 306 308 308 308 309 311 312 317 319 323 328 330 338 339 332 338 341 345 346 348 348 349 350 345 352 358 356 353 350 349 345 351 351 351 341 336 323 304 300 300 299
304 304 301 304 304 308 309 311 312 317 320 324 326 329 333 331 333 335 336 337 338 340 340 341 346 346 348 346 349 352 348 325 349 349 350 348 347 344 342 339 336 333 307 304
300 302 303 305 306 307 310 312 316 318 320 321 326 329 329 328 330 333 336 339 341 342 338 337 339 341 346 349 344 345 345 342 344 343 343 339 341 339 338 335 334 333 332 316
300 300 300 301 302 306 309 310 315 316 318 323 325 326 328 329 332 334 336 338 337 336 339 339 336 339 339 342 344 339 339 326 332 338 337 337 336 334 333 336 336 330 332 332
298 299 301 306 308 309 310 310 314 315 322 322 323 324 325 328 327 326 327 329 331 331 332 335 338 341 342 341 339 340 339 339 328 340 339 340 340 337 337 335 332 328 329 326
305 307 312 311 311 313 314 318 321 320 320 323 323 323 322 321 320 321 322 325 326 326 328 331 335 337 339 341 341 340 339 338 337 335 336 336 335 334 330 328 327 327 328 320
310 312 312 315 316 313 310 309 310 312 313 314 315 316 318 319 319 320 321 320 320 321 325 331 327 330 332 331 336 338 338 339 336 335 336 326 332 333 332 332 330 328 326 325
305 306 307 309 312 311 309 311 311 311 312 312 313 314 313 316 316 315 317 316 318 319 321 324 329 329 332 333 330 336 336 335 335 334 334 333 333 333 332 322 326 324 326 329
304 305 304 303 303 305 309 310 310 308 309 310 311 310 307 309 314 314 311 310 315 318 319 318 320 323 325 327 330 331 331 331 332 332 330 329 331 331 331 331 332 331 330 330
305 304 305 305 304 305 307 308 309 310 309 307 307 307 309 308 308 309 313 311 313 311 316 317 317 316 320 321 324 324 324 323 320 320 319 322 325 325 326 327 328 327 326 328
306 306 304 305 304 303 304 306 307 308 309 310 311 309 306 307 307 305 305 310 312 309 313 313 311 312 314 318 318 315 314 314 315 314 310 309 310 311 312 316 322 325 324 322
306 307 307 306 307 306 304 304 306 305 307 308 308 310 310 308 307 308 308 306 305 307 308 309 310 309 311 315 316 316 317 316 315 313 309 303 308 311 310 312 313 317 318 315
305 305 305 304 305 304 306 307 306 307 306 307 308 308 307 308 306 307 308 307 304 307 308 306 307 307 312 313 312 312 312 313 313 316 315 313 308 305 308 311 312 313 314 316
303 302 302 303 302 304 305 305 303 304 303 302 303 305 305 305 306 306 306 305 306 305 306 306 306 308 308 307 308 309 308 309 310 310 309 309 310 311 308 306 311 314 313 313
301 299 303 302 303 302 302 301 301 301 302 303 301 303 304 304 303 303 302 304 304 304 305 305 304 304 305 305 306 306 306 307 301 307 308 308 308 306 304 303 303 303 306 308

GFSNGP_sfc_thetae_045.txt.gz
Theta_e
309 311 310 309 308 309 307 309 306 309 310 314 316 318 320 323 324 324 326 328 331 333 336 340 348 356 359 356 359 357 361 363 365 370 373 373 372 372 374 374 374 375 375 374
306 310 307 306 309 309 309 309 310 310 311 319 320 320 320 321 321 321 322 327 329 332 336 338 343 354 357 360 358 361 362 362 366 369 372 372 373 372 374 373 374 375 374 373
301 307 306 302 307 309 310 312 311 308 314 319 318 318 319 321 322 321 324 325 326 328 333 339 341 348 352 359 362 362 361 366 366 368 368 372 373 373 372 372 374 373 373 373
299 304 296 307 314 312 310 312 314 314 316 318 319 320 322 324 323 324 325 326 327 328 330 335 338 341 350 349 362 363 364 361 368 368 369 371 372 372 373 373 373 372 373 374
296 299 304 307 310 310 308 308 314 314 315 316 318 319 320 323 324 325 326 327 328 329 329 332 332 340 344 349 354 361 362 364 363 369 369 370 370 372 373 372 372 371 372 372
298 295 296 306 310 312 313 304 315 315 315 316 318 312 316 324 327 330 332 334 335 333 330 331 334 333 337 341 357 360 362 365 368 370 370 369 371 372 373 372 371 367 369 372
294 294 300 308 312 313 301 310 320 318 318 320 320 325 331 332 332 334 336 337 338 338 335 339 339 342 346 346 350 359 361 364 369 370 371 372 373 374 373 371 367 369 368 370
294 293 292 309 307 304 311 318 318 319 320 321 324 325 328 330 331 333 335 338 340 339 338 338 344 352 356 357 359 368 366 365 368 371 367 366 374 373 373 371 369 369 367 366
297 297 307 308 308 311 312 311 313 314 315 318 318 319 323 326 330 333 336 341 343 340 345 347 350 355 357 363 372 369 369 368 370 372 370 370 370 371 365 369 360 360 358 358
298 302 304 306 308 309 310 310 312 313 314 314 313 316 319 324 326 331 334 341 344 342 346 348 353 355 363 365 371 371 369 370 370 370 369 369 364 363 360 358 358 356 356 354
298 301 303 305 307 308 309 310 310 312 312 313 317 317 319 322 326 331 334 343 345 349 348 350 355 358 359 362 366 363 363 361 365 362 363 364 359 347 359 354 338 357 357 357
294 302 303 304 307 309 308 308 310 310 312 315 316 315 318 320 326 332 337 347 348 352 356 356 356 359 364 362 362 361 358 357 356 357 359 360 354 343 305 306 301 301 300 321
301 305 305 307 308 309 308 309 310 311 312 312 313 314 316 320 327 330 344 345 345 351 354 354 351 347 356 364 362 363 365 364 356 351 358 358 359 356 351 317 302 300 299 300
303 303 302 305 305 309 309 310 311 312 313 313 314 315 316 320 327 332 339 345 345 343 346 349 350 350 350 356 361 360 356 329 355 354 354 354 354 350 351 350 348 342 307 307
299 302 303 306 307 306 309 310 309 309 311 312 315 316 321 324 328 334 342 342 343 342 341 345 346 350 352 353 353 353 351 351 351 352 351 345 348 347 344 343 340 338 333 317
303 302 304 304 305 307 306 308 308 309 311 314 317 323 326 328 328 335 338 342 338 337 338 338 339 344 350 349 348 345 344 330 337 345 344 345 344 342 340 340 339 339 338 338
303 301 303 303 302 304 305 307 308 310 313 316 322 324 321 328 330 330 331 332 332 334 338 341 342 345 347 347 346 343 342 342 334 343 342 342 341 340 338 337 338 339 337 330
307 307 309 310 309 311 311 314 314 315 317 318 320 323 322 322 323 324 325 330 332 334 334 336 342 342 341 344 343 341 340 340 339 338 338 337 337 336 336 335 334 331 331 326
306 308 310 309 310 310 310 310 311 311 311 314 314 314 317 318 319 321 325 326 327 328 331 334 328 335 338 334 340 337 336 338 338 337 336 330 335 336 334 335 334 334 333 330
304 305 307 307 309 309 307 309 309 309 309 308 307 307 311 314 314 315 316 315 317 321 327 329 332 333 336 331 329 331 331 331 332 332 332 332 334 334 333 324 332 333 334 335
304 304 304 305 305 308 310 309 308 306 306 306 306 306 306 308 310 312 311 309 315 319 319 322 326 327 328 328 329 329 328 326 326 330 330 331 331 329 329 333 333 334 332 331
305 305 305 304 305 305 308 309 309 307 306 306 306 306 305 304 305 305 308 308 310 311 314 315 318 317 320 322 323 323 323 322 322 323 323 325 324 322 323 323 325 325 327 329
305 305 305 306 306 306 306 306 308 309 309 310 309 308 306 306 307 304 302 307 308 308 311 312 310 312 315 320 319 318 317 317 317 317 318 318 318 318 315 314 317 319 322 321
306 307 306 308 308 308 308 309 309 309 309 309 308 310 309 307 306 306 307 306 306 306 307 308 309 309 311 314 315 316 316 316 315 314 313 307 312 314 316 314 312 313 314 313
305 305 306 305 306 304 307 308 307 307 307 308 309 310 308 307 305 306 308 308 305 306 306 306 307 307 310 310 310 311 311 311 313 313 315 314 313 311 308 307 309 313 314 314
302 302 303 305 304 304 305 305 304 304 304 304 305 305 306 306 306 306 306 305 306 305 305 304 305 307 308 308 308 308 308 307 309 310 309 310 309 309 309 309 306 303 305 306
302 299 303 303 303 304 303 303 302 302 303 304 303 304 304 304 304 304 302 304 304 304 304 304 304 303 304 304 305 306 307 307 301 307 308 308 308 308 308 307 304 304 303 300

GFSNGP_sfc_thetae_048.txt.gz
Theta_e
308 310 311 308 307 308 307 309 305 309 310 314 316 318 322 326 328 328 331 334 340 338 339 346 350 352 354 354 355 356 357 360 362 365 368 368 368 368 369 367 367 366 367 367
305 308 309 308 308 308 309 309 310 310 311 319 320 323 324 326 325 328 330 332 336 340 344 347 349 354 354 355 357 358 358 358 363 364 365 367 367 367 368 368 367 368 367 367
299 307 307 304 308 309 310 311 311 308 315 320 319 320 323 326 325 326 325 329 335 338 346 357 350 355 356 355 358 360 358 362 363 364 364 366 367 367 366 367 368 367 367 368
298 304 296 308 315 313 311 312 314 314 317 319 321 324 325 327 325 323 325 327 333 330 334 343 339 341 357 359 360 359 361 361 365 365 364 366 367 367 367 366 367 367 366 367
296 298 304 308 311 311 309 310 315 315 317 319 320 321 323 325 327 328 332 334 334 331 331 342 339 342 352 353 358 361 359 360 362 366 365 365 366 366 367 367 367 367 368 367
298 295 295 306 313 316 315 305 316 316 316 317 318 311 319 332 332 333 336 339 340 340 339 341 343 339 355 350 358 357 359 360 365 363 365 365 365 366 369 369 366 367 367 368
295 294 301 308 311 314 303 308 320 321 320 318 318 325 330 331 332 334 336 337 342 343 342 347 351 350 362 364 356 360 361 364 364 365 363 367 368 368 368 368 367 366 366 367
295 294 293 309 309 305 314 317 316 316 317 319 322 323 324 326 328 331 335 336 340 344 346 350 352 353 354 360 366 376 365 365 365 367 363 365 367 368 369 368 365 365 364 365
297 297 311 308 308 311 311 311 313 313 314 315 315 316 317 319 326 328 332 337 338 345 350 353 352 369 363 364 375 376 375 369 367 367 367 366 367 366 366 367 364 363 361 361
298 302 304 306 309 310 310 310 311 312 312 313 312 313 317 319 323 327 330 334 336 341 347 352 366 366 368 371 371 372 372 370 369 368 366 367 367 367 365 364 363 361 360 358
297 301 304 305 306 308 309 310 310 311 311 311 312 312 317 319 321 324 328 335 337 344 350 355 366 369 367 370 369 366 369 367 367 366 364 366 354 347 362 345 337 362 359 360
295 302 303 305 307 309 308 307 309 309 310 312 313 314 316 318 320 321 324 334 335 347 348 353 360 360 364 368 371 369 365 364 360 360 364 363 344 337 304 304 301 300 303 333
298 303 303 306 309 309 308 309 310 310 311 310 312 313 315 317 319 319 323 331 335 343 349 353 358 354 357 365 370 367 366 362 359 352 361 360 353 347 333 314 300 299 299 301
298 300 299 301 302 308 309 309 310 311 312 312 312 315 315 316 318 320 326 331 336 343 348 353 353 351 354 359 368 367 367 330 359 357 361 359 357 357 352 340 336 328 306 307
299 299 299 302 304 306 309 309 308 309 310 312 314 315 316 316 318 320 329 332 335 343 346 348 348 353 355 357 359 358 358 362 364 361 361 354 355 355 352 355 349 330 323 315
307 304 302 299 302 304 306 307 307 307 309 312 313 315 316 319 321 327 329 331 336 339 343 341 344 347 350 355 357 353 350 333 342 351 349 349 347 345 344 344 342 339 338 331
302 302 303 302 303 304 305 307 309 310 311 312 314 316 318 318 321 326 329 334 339 339 338 341 341 349 348 350 348 344 344 344 337 344 344 344 344 342 342 341 339 339 333 321
304 304 306 309 307 307 307 309 309 310 311 313 314 315 321 322 323 325 329 331 335 332 335 341 341 343 345 346 346 344 342 341 343 341 342 341 340 341 339 338 335 333 332 325
304 304 304 306 309 311 309 308 308 309 311 314 313 312 314 314 314 316 324 325 325 325 327 331 328 333 336 334 336 340 340 338 338 338 337 331 335 335 334 334 334 333 331 330
305 305 305 305 307 307 306 307 307 306 306 306 306 304 306 308 309 309 310 309 311 316 323 325 328 327 328 328 329 334 333 332 332 332 332 331 330 332 332 324 332 333 334 334
303 306 305 304 304 307 307 307 306 305 305 305 304 303 303 304 304 305 304 304 307 312 315 317 319 320 324 324 323 322 323 324 326 325 324 327 327 327 327 324 324 325 328 327
305 304 306 305 304 305 307 309 306 306 305 305 305 305 303 302 304 304 304 303 306 308 311 314 315 317 318 319 319 319 318 319 319 320 321 322 321 321 321 323 322 320 319 319
306 305 306 307 305 305 306 306 306 307 306 305 304 303 303 303 304 302 301 305 306 305 307 309 311 312 313 315 315 316 314 314 314 315 316 316 315 315 314 315 314 314 314 313
306 306 306 308 308 306 303 304 306 306 305 304 306 308 307 305 305 307 306 305 304 305 305 305 307 308 309 311 310 310 312 313 312 311 311 307 310 307 305 310 315 313 310 308
305 307 307 305 303 303 306 306 304 304 305 304 305 306 306 305 303 306 306 304 303 303 303 304 306 306 308 307 306 307 308 309 310 309 310 311 311 310 307 305 302 301 306 309
304 302 303 307 304 304 303 303 302 303 304 302 302 303 303 304 304 305 305 304 305 303 301 302 302 304 304 304 306 305 305 306 307 307 308 308 308 306 306 305 304 302 300 300
302 299 302 302 302 302 302 303 301 300 300 303 301 302 302 302 302 301 301 301 302 301 301 301 301 301 301 302 302 303 304 303 299 305 306 306 306 307 307 306 305 304 301 298